Location: Titusville
(28.6119°N, 80.8078°W)
Time: 13:36:49
(UTC-05:00)

Hubble Space Telescope - Visible Passes

Search period start: 21 January 2019 00:00
Search period end: 31 January 2019 00:00
Orbit: 537 x 540 km, 28.5° (Epoch: 20 January)

Date Brightness Start Highest point End Pass type
(mag) Time Alt. Az. Time Alt. Az. Time Alt. Az.
21 Jan 2.0 05:08:34 40° E 05:08:34 40° E 05:11:17 10° E visible
21 Jan 0.8 06:44:13 10° W 06:48:21 79° S 06:52:29 10° E visible
22 Jan 2.6 04:58:45 29° E 04:58:45 29° E 05:00:51 10° E visible
22 Jan 0.9 06:34:05 12° W 06:37:55 72° S 06:42:02 10° ESE visible
23 Jan 3.2 04:48:54 22° E 04:48:54 22° E 04:50:26 10° E visible
23 Jan 1.0 06:24:15 16° W 06:27:28 63° SSW 06:31:34 10° ESE visible
24 Jan 3.6 04:39:04 16° E 04:39:04 16° E 04:40:00 10° E visible
24 Jan 1.2 06:14:24 20° W 06:17:01 54° SSW 06:21:03 10° ESE visible
25 Jan 4.0 04:29:14 12° E 04:29:14 12° E 04:29:34 10° E visible
25 Jan 1.4 06:04:34 25° WSW 06:06:32 45° SSW 06:10:30 10° ESE visible
26 Jan 1.6 05:54:46 29° WSW 05:56:03 37° SSW 05:59:53 10° SE visible
27 Jan 1.9 05:44:59 29° SW 05:45:34 30° SSW 05:49:12 10° SE visible
28 Jan 2.3 05:35:14 24° SSW 05:35:14 24° SSW 05:38:26 10° SSE visible
29 Jan 2.8 05:25:31 18° S 05:25:31 18° S 05:27:33 10° SSE visible
30 Jan 3.3 05:15:50 12° S 05:15:50 12° S 05:16:28 10° S visible
